Precipitable_Water
0.65 0.64 0.65 0.64 0.62 0.59 0.56 0.54 0.55 0.56 0.57 0.55 0.53 0.54 0.56 0.56 0.51 0.41 0.25 0.29 0.34 0.39 0.42 0.38 0.33 0.26 0.25 0.21 0.24 0.27 0.21 0.15 0.15 0.14 0.16 0.17 0.17 0.25 0.24 0.21 0.23 0.30 0.45 0.53 0.67
0.68 0.66 0.66 0.64 0.61 0.57 0.54 0.53 0.54 0.56 0.54 0.54 0.54 0.57 0.58 0.57 0.44 0.27 0.33 0.35 0.37 0.42 0.37 0.35 0.28 0.29 0.24 0.25 0.28 0.23 0.18 0.17 0.20 0.19 0.17 0.19 0.18 0.18 0.18 0.19 0.26 0.33 0.58 0.72 0.81
0.69 0.67 0.63 0.61 0.57 0.55 0.53 0.53 0.54 0.57 0.53 0.51 0.57 0.56 0.58 0.60 0.38 0.27 0.35 0.34 0.40 0.44 0.41 0.39 0.35 0.31 0.25 0.24 0.26 0.24 0.19 0.23 0.21 0.18 0.17 0.17 0.19 0.21 0.19 0.19 0.29 0.32 0.42 0.58 0.65
0.66 0.64 0.62 0.58 0.56 0.55 0.53 0.54 0.56 0.56 0.51 0.52 0.57 0.59 0.59 0.51 0.17 0.33 0.36 0.38 0.43 0.45 0.39 0.34 0.32 0.27 0.19 0.18 0.22 0.17 0.16 0.18 0.17 0.16 0.15 0.17 0.19 0.19 0.18 0.20 0.24 0.28 0.39 0.43 0.41
0.65 0.62 0.59 0.57 0.55 0.55 0.56 0.57 0.55 0.55 0.52 0.51 0.56 0.56 0.50 0.34 0.29 0.40 0.47 0.48 0.48 0.44 0.36 0.33 0.30 0.30 0.22 0.24 0.27 0.20 0.18 0.21 0.22 0.24 0.21 0.21 0.19 0.20 0.21 0.23 0.23 0.24 0.26 0.32 0.38
0.63 0.60 0.57 0.56 0.57 0.57 0.56 0.53 0.53 0.55 0.56 0.56 0.57 0.56 0.42 0.24 0.41 0.45 0.44 0.45 0.43 0.39 0.32 0.34 0.31 0.33 0.28 0.24 0.27 0.27 0.26 0.28 0.31 0.28 0.26 0.19 0.24 0.26 0.24 0.26 0.27 0.27 0.25 0.28 0.34
0.61 0.60 0.58 0.57 0.56 0.54 0.51 0.51 0.52 0.55 0.59 0.59 0.60 0.55 0.45 0.26 0.44 0.47 0.47 0.40 0.40 0.35 0.29 0.30 0.38 0.34 0.38 0.35 0.35 0.32 0.28 0.31 0.31 0.28 0.25 0.25 0.18 0.21 0.27 0.29 0.28 0.29 0.31 0.34 0.34
0.61 0.59 0.58 0.57 0.57 0.55 0.54 0.55 0.54 0.54 0.55 0.59 0.62 0.57 0.25 0.43 0.48 0.44 0.46 0.42 0.39 0.36 0.32 0.36 0.40 0.37 0.37 0.39 0.37 0.32 0.29 0.23 0.29 0.31 0.28 0.24 0.16 0.21 0.26 0.28 0.27 0.29 0.31 0.34 0.37
0.60 0.59 0.59 0.59 0.57 0.56 0.55 0.54 0.53 0.53 0.55 0.62 0.56 0.51 0.28 0.44 0.38 0.39 0.43 0.32 0.36 0.38 0.43 0.45 0.41 0.35 0.33 0.25 0.27 0.27 0.18 0.21 0.27 0.30 0.27 0.25 0.22 0.27 0.29 0.28 0.28 0.28 0.30 0.32 0.35
0.59 0.59 0.59 0.59 0.59 0.57 0.55 0.54 0.52 0.50 0.55 0.55 0.50 0.41 0.34 0.30 0.33 0.37 0.35 0.32 0.33 0.37 0.35 0.36 0.35 0.31 0.30 0.19 0.11 0.14 0.17 0.23 0.27 0.31 0.30 0.25 0.23 0.27 0.31 0.30 0.28 0.29 0.31 0.33 0.34
0.57 0.57 0.58 0.57 0.57 0.55 0.53 0.55 0.40 0.35 0.45 0.31 0.31 0.32 0.31 0.31 0.36 0.30 0.27 0.31 0.33 0.33 0.24 0.25 0.29 0.22 0.20 0.23 0.24 0.19 0.19 0.22 0.27 0.29 0.26 0.23 0.25 0.27 0.31 0.28 0.27 0.27 0.30 0.32 0.34
0.54 0.55 0.55 0.55 0.54 0.64 0.72 0.62 0.59 0.54 0.25 0.34 0.28 0.27 0.25 0.31 0.26 0.27 0.23 0.23 0.21 0.19 0.22 0.22 0.21 0.29 0.25 0.24 0.23 0.19 0.21 0.23 0.25 0.28 0.29 0.27 0.24 0.29 0.29 0.29 0.27 0.24 0.27 0.31 0.35
0.52 0.53 0.54 0.53 0.53 0.62 0.50 0.52 0.69 0.58 0.37 0.21 0.25 0.24 0.25 0.28 0.22 0.22 0.21 0.23 0.20 0.20 0.19 0.17 0.24 0.26 0.21 0.24 0.22 0.19 0.22 0.22 0.23 0.29 0.30 0.28 0.21 0.24 0.29 0.31 0.34 0.34 0.37 0.37 0.37
0.52 0.52 0.54 0.53 0.43 0.56 0.49 0.52 0.62 0.68 0.28 0.23 0.24 0.30 0.27 0.31 0.27 0.34 0.29 0.29 0.29 0.20 0.16 0.22 0.29 0.25 0.21 0.25 0.26 0.16 0.25 0.27 0.28 0.27 0.21 0.33 0.19 0.25 0.28 0.30 0.33 0.35 0.39 0.41 0.43
0.54 0.54 0.55 0.59 0.63 0.43 0.55 0.53 0.59 0.56 0.15 0.27 0.25 0.33 0.32 0.25 0.28 0.32 0.40 0.32 0.21 0.19 0.21 0.22 0.21 0.21 0.21 0.23 0.26 0.25 0.33 0.30 0.31 0.28 0.29 0.30 0.28 0.27 0.31 0.29 0.34 0.38 0.42 0.45 0.49
0.61 0.58 0.62 0.60 0.63 0.63 0.63 0.57 0.54 0.36 0.18 0.25 0.27 0.28 0.31 0.34 0.31 0.36 0.42 0.44 0.38 0.32 0.31 0.29 0.32 0.32 0.30 0.30 0.34 0.36 0.32 0.28 0.35 0.32 0.24 0.30 0.28 0.27 0.29 0.33 0.37 0.42 0.45 0.48 0.48
0.70 0.72 0.65 0.71 0.57 0.68 0.64 0.58 0.36 0.28 0.33 0.28 0.29 0.29 0.30 0.31 0.32 0.32 0.36 0.36 0.31 0.23 0.25 0.32 0.31 0.34 0.39 0.30 0.33 0.33 0.29 0.19 0.18 0.22 0.22 0.34 0.27 0.27 0.38 0.39 0.40 0.41 0.44 0.47 0.52
0.73 0.79 0.79 0.70 0.77 0.72 0.64 0.46 0.26 0.34 0.30 0.37 0.32 0.29 0.29 0.31 0.32 0.34 0.37 0.33 0.40 0.33 0.30 0.27 0.25 0.35 0.40 0.35 0.29 0.34 0.33 0.26 0.17 0.18 0.21 0.29 0.23 0.30 0.41 0.43 0.49 0.51 0.52 0.55 0.56
0.81 0.80 0.69 0.71 0.74 0.72 0.60 0.36 0.32 0.32 0.36 0.32 0.32 0.29 0.33 0.35 0.32 0.37 0.37 0.36 0.40 0.40 0.28 0.28 0.28 0.41 0.41 0.41 0.42 0.36 0.33 0.40 0.31 0.33 0.27 0.29 0.33 0.37 0.46 0.48 0.54 0.54 0.57 0.59 0.61
0.81 0.83 0.59 0.77 0.74 0.81 0.54 0.37 0.37 0.40 0.36 0.35 0.30 0.32 0.31 0.35 0.35 0.36 0.37 0.44 0.43 0.46 0.46 0.40 0.27 0.40 0.43 0.46 0.48 0.43 0.44 0.32 0.36 0.24 0.22 0.27 0.28 0.32 0.40 0.42 0.50 0.51 0.54 0.58 0.62
0.92 0.73 0.68 0.77 0.81 0.67 0.46 0.39 0.39 0.39 0.42 0.40 0.39 0.37 0.38 0.36 0.39 0.38 0.39 0.46 0.48 0.41 0.49 0.47 0.39 0.34 0.39 0.41 0.40 0.38 0.38 0.43 0.44 0.42 0.30 0.28 0.30 0.45 0.43 0.51 0.53 0.53 0.59 0.61 0.64
0.84 0.58 0.70 0.86 0.52 0.60 0.43 0.44 0.46 0.44 0.48 0.45 0.47 0.44 0.41 0.43 0.40 0.39 0.39 0.43 0.52 0.48 0.43 0.48 0.39 0.31 0.35 0.47 0.51 0.47 0.45 0.44 0.36 0.35 0.39 0.37 0.31 0.47 0.50 0.51 0.49 0.60 0.63 0.63 0.63
0.62 0.59 0.76 0.82 0.44 0.42 0.47 0.45 0.49 0.49 0.49 0.49 0.45 0.46 0.46 0.42 0.37 0.44 0.45 0.55 0.54 0.51 0.45 0.48 0.38 0.28 0.30 0.41 0.49 0.45 0.44 0.45 0.45 0.42 0.33 0.32 0.32 0.52 0.52 0.52 0.57 0.55 0.57 0.59 0.61
0.63 0.44 0.54 0.65 0.63 0.47 0.42 0.43 0.41 0.51 0.48 0.51 0.49 0.51 0.49 0.46 0.51 0.44 0.44 0.54 0.57 0.54 0.56 0.52 0.39 0.34 0.25 0.31 0.43 0.38 0.38 0.39 0.40 0.32 0.31 0.34 0.36 0.43 0.48 0.50 0.52 0.54 0.57 0.59 0.62
0.59 0.45 0.55 0.41 0.48 0.50 0.49 0.46 0.42 0.44 0.51 0.49 0.49 0.50 0.46 0.41 0.42 0.42 0.48 0.48 0.52 0.54 0.53 0.49 0.33 0.38 0.39 0.44 0.44 0.42 0.38 0.37 0.37 0.38 0.33 0.34 0.39 0.43 0.49 0.50 0.53 0.56 0.58 0.57 0.60
0.54 0.51 0.53 0.45 0.47 0.44 0.40 0.41 0.41 0.44 0.42 0.43 0.39 0.45 0.48 0.43 0.45 0.39 0.44 0.44 0.41 0.44 0.43 0.51 0.36 0.41 0.35 0.39 0.44 0.40 0.37 0.38 0.41 0.42 0.40 0.39 0.39 0.51 0.51 0.57 0.54 0.55 0.57 0.58 0.59
0.63 0.60 0.53 0.43 0.42 0.40 0.41 0.43 0.42 0.44 0.48 0.46 0.43 0.40 0.39 0.44 0.50 0.52 0.52 0.49 0.45 0.40 0.38 0.41 0.40 0.37 0.29 0.40 0.42 0.34 0.31 0.36 0.39 0.41 0.41 0.36 0.44 0.54 0.54 0.55 0.57 0.60 0.60 0.58 0.60
Wind_Speed
8 9 9 9 9 10 10 10 11 10 10 10 10 11 11 11 11 12 12 10 9 9 8 7 6 5 4 4 2 5 3 4 3 4 5 5 4 3 4 3 5 6 5 6 5
8 9 10 11 11 12 12 13 13 12 12 13 14 14 15 15 15 15 14 14 12 10 10 9 8 6 5 5 6 8 7 5 3 3 4 6 6 3 5 5 4 3 4 2 1
11 12 13 13 14 15 16 16 15 14 14 15 16 16 15 15 15 16 16 15 15 15 13 10 9 8 9 6 6 7 7 6 6 6 4 4 6 6 5 4 6 5 2 1 2
13 15 16 17 18 18 18 17 16 15 16 16 15 14 14 14 16 15 15 15 14 13 12 12 11 13 11 11 8 10 10 9 8 9 6 5 5 5 4 4 2 3 1 3 3
16 18 19 20 20 19 18 17 16 15 14 13 13 12 13 14 15 14 13 12 11 10 10 13 13 12 11 9 8 8 7 6 6 5 4 4 5 4 4 5 3 4 4 4 5
18 20 20 20 20 18 17 16 15 14 13 12 11 9 10 11 10 11 10 11 12 14 13 12 10 10 8 8 8 6 4 3 3 4 5 5 6 6 6 5 2 4 5 7 8
19 20 20 20 18 17 16 15 14 14 13 11 10 9 9 9 10 8 7 10 10 11 11 10 9 8 8 7 7 5 5 4 3 4 5 7 8 7 7 3 4 7 8 8 9
19 19 18 17 16 15 14 13 12 11 10 9 8 8 7 7 7 7 8 6 8 9 9 9 7 7 6 6 5 5 5 6 5 3 5 6 8 10 9 5 8 9 10 10 10
18 17 17 16 15 13 12 11 10 10 8 7 6 5 4 5 5 4 5 5 6 5 4 5 6 4 6 7 6 7 7 8 9 1 5 6 11 12 11 9 12 11 10 10 10
16 15 15 13 13 12 10 9 8 6 5 3 1 3 3 3 3 4 5 5 4 5 6 4 3 4 7 9 6 8 9 8 8 8 10 12 12 12 12 11 9 7 8 8 8
13 13 12 11 10 9 8 5 4 2 3 3 2 3 4 3 3 5 7 5 5 5 5 4 6 4 7 7 7 9 10 9 9 13 13 14 14 13 8 6 7 6 6 8 9
11 10 10 9 8 6 4 4 3 3 1 1 1 1 2 3 5 8 8 5 5 6 5 6 3 6 8 9 8 10 10 9 10 14 13 14 15 11 4 5 5 5 5 7 9
9 9 8 8 6 6 4 4 4 2 3 2 2 2 4 5 5 8 8 6 5 6 5 5 4 8 9 9 9 10 8 11 12 15 14 11 13 5 6 5 7 8 9 9 11
7 8 8 7 6 6 5 5 4 4 3 4 5 5 7 6 5 5 7 5 5 5 6 4 5 8 10 7 10 11 12 14 15 13 10 11 10 14 8 9 10 10 9 11 14
4 6 8 8 7 7 7 6 6 5 4 6 6 7 6 4 7 6 6 5 6 8 5 6 6 9 9 10 11 11 14 17 16 13 11 12 9 10 10 13 13 12 12 14 17
2 3 5 7 7 7 7 7 6 5 7 5 6 6 6 5 5 8 6 8 7 8 7 9 7 7 10 11 12 13 15 15 10 6 7 11 10 11 14 11 12 12 14 16 20
2 2 3 4 5 5 5 5 3 3 5 4 4 5 5 7 7 8 6 8 7 8 9 11 6 7 11 12 13 15 13 11 9 9 7 15 15 13 18 10 9 13 17 20 23
3 2 2 3 4 4 3 2 2 5 2 4 5 6 5 8 6 8 5 7 9 9 10 9 11 10 12 9 11 11 11 8 10 11 15 16 10 12 15 9 14 17 18 20 26
4 3 2 2 4 4 3 2 5 5 6 6 7 7 6 6 5 7 6 8 8 9 8 10 10 13 9 10 10 12 12 12 11 13 12 12 13 16 8 19 21 15 20 25 28
4 4 1 2 3 2 2 4 3 4 7 7 6 5 4 5 7 7 6 8 6 8 9 9 10 10 11 13 10 9 13 12 13 13 15 15 17 13 20 23 21 22 26 26 28
4 3 2 3 2 2 2 2 2 3 4 4 4 3 3 5 7 6 5 5 7 10 11 9 7 13 13 9 12 11 12 13 15 14 15 18 17 19 26 25 26 31 26 28 28
3 3 3 3 2 3 2 3 3 3 3 3 3 3 4 5 6 6 5 5 9 10 9 10 9 12 15 17 13 10 15 17 15 19 19 21 25 23 23 29 35 31 25 28 30
3 4 3 3 3 4 3 3 3 4 4 4 3 5 6 6 6 7 8 7 9 10 10 12 12 13 14 12 14 15 22 22 22 21 21 22 27 30 32 32 26 26 29 31 34
5 5 4 4 5 4 4 4 4 5 5 6 6 7 7 8 8 9 11 10 11 12 11 12 12 12 14 17 21 24 27 28 24 21 27 26 34 31 30 28 27 30 33 35 35
6 6 6 5 5 3 4 6 5 6 6 7 8 8 8 9 12 11 13 14 16 13 14 14 16 18 20 22 25 28 30 30 29 30 28 34 31 29 29 26 29 33 34 35 35
7 6 6 6 7 5 6 8 8 6 8 7 9 11 10 10 11 14 15 16 16 18 19 19 21 20 23 25 26 26 30 32 29 26 26 30 34 28 28 29 34 33 36 38 42
9 9 8 9 8 7 9 9 8 9 11 11 12 13 14 14 15 17 18 20 21 22 22 22 21 21 28 24 23 25 24 22 24 29 28 27 27 30 33 35 36 37 38 42 44
Wind_Direction
180 179 177 171 164 156 150 141 135 125 112 95 87 79 71 65 61 70 71 73 71 62 67 64 72 78 96 106 50 357 25 103 55 55 26 354 36 342 336 297 301 306 298 289 249
170 164 157 152 147 143 139 135 131 122 111 101 93 84 78 68 74 75 72 71 72 71 74 70 65 70 95 84 41 60 86 69 69 46 19 19 28 353 358 1 313 351 28 78 61
147 146 142 139 135 133 131 129 127 121 114 107 97 88 78 71 80 75 76 78 76 72 75 71 66 65 75 72 54 68 73 57 48 44 37 25 29 37 40 32 56 55 77 61 4
135 135 133 131 129 128 126 124 123 120 117 110 99 86 76 77 84 79 79 78 70 67 65 60 60 77 86 80 70 78 74 71 60 59 56 37 14 1 7 10 10 4 337 322 320
130 130 130 129 128 125 123 121 119 119 118 111 102 88 82 81 83 83 75 66 60 53 61 59 67 68 79 76 61 71 79 68 72 57 33 10 351 333 319 321 345 352 335 315 303
129 130 129 129 127 125 122 120 117 115 116 114 103 90 87 86 87 80 69 58 60 58 60 59 66 61 62 65 61 48 39 51 30 11 4 355 329 325 310 310 313 327 313 300 297
130 130 130 129 127 125 122 117 115 113 113 108 99 88 94 96 81 72 67 59 58 56 54 58 56 54 60 60 51 22 17 335 319 325 349 357 337 334 298 290 291 299 301 301 291
131 132 132 131 131 128 125 121 119 115 113 107 97 90 87 93 78 56 51 66 50 51 53 58 49 44 45 20 12 12 10 27 312 297 325 357 321 324 325 272 290 293 297 292 292
134 135 135 134 132 130 128 125 121 117 116 109 94 88 88 76 56 41 35 26 14 22 24 24 19 24 30 16 23 31 6 1 348 6 325 318 314 322 317 293 289 288 294 298 298
138 139 140 139 137 135 133 130 126 119 116 111 115 62 71 61 42 10 356 344 341 349 343 350 1 15 17 18 5 342 341 333 349 331 331 322 312 316 313 311 333 309 303 318 325
144 144 147 147 146 143 139 139 133 131 136 91 76 88 51 20 350 358 347 329 321 328 344 352 21 23 359 343 337 341 327 325 323 329 330 318 309 304 314 339 352 343 331 326 325
155 156 158 161 164 169 177 176 164 171 194 173 100 54 341 336 326 342 346 349 342 335 348 358 17 352 337 331 348 339 329 329 320 328 322 318 312 299 288 314 321 344 348 340 336
169 175 178 182 192 197 199 200 196 231 230 241 270 307 316 317 320 330 340 323 309 334 345 338 349 346 339 343 345 333 338 325 316 320 318 332 324 333 311 304 309 308 307 314 320
181 190 195 201 205 209 215 212 228 252 253 247 267 289 306 300 302 324 336 327 315 326 320 306 335 345 335 335 339 323 326 319 310 319 312 330 313 311 296 295 293 291 294 302 316
174 196 207 209 219 216 225 235 257 253 270 271 286 285 296 319 305 309 327 318 324 304 312 294 325 330 336 325 324 308 320 310 301 295 309 319 321 322 318 300 292 293 300 306 312
166 192 211 213 225 229 235 250 255 267 267 265 273 285 280 312 310 309 312 317 305 300 288 291 305 323 325 321 320 317 324 318 320 314 324 328 334 311 321 309 298 303 306 310 314
147 155 181 197 204 213 226 238 260 242 254 268 276 290 287 306 309 309 316 350 326 318 312 310 295 311 322 321 327 335 336 328 331 325 296 332 321 306 326 313 297 300 303 305 312
184 171 156 189 208 210 211 238 251 277 288 261 286 273 293 309 296 309 312 313 331 323 299 310 306 326 323 327 322 326 335 331 314 311 304 313 307 313 327 339 319 305 309 311 316
199 190 201 224 207 204 218 263 231 278 293 293 276 290 280 299 292 312 318 316 319 327 316 316 297 313 314 318 324 321 334 318 314 315 318 306 319 324 328 326 321 322 314 317 316
190 188 208 205 180 211 239 260 264 290 297 282 296 297 312 324 322 320 312 319 307 331 323 307 306 308 314 312 311 312 321 330 322 315 309 306 316 300 317 320 316 308 307 310 313
186 188 229 188 204 249 240 263 267 302 307 305 312 304 314 318 316 323 330 331 334 325 325 326 314 307 319 306 317 319 325 322 316 308 304 308 307 312 313 310 318 316 316 319 317
213 206 236 217 226 265 268 302 283 295 313 298 309 312 308 325 318 328 310 315 322 322 320 317 304 308 305 298 298 319 324 321 312 304 298 297 299 306 307 310 310 313 314 316 316
223 212 230 235 240 265 258 279 306 312 313 314 294 306 301 303 306 317 310 303 315 318 311 317 309 314 321 320 314 314 316 314 307 303 295 297 300 311 308 306 312 312 315 315 314
230 237 252 250 256 232 243 254 273 293 293 296 289 285 299 305 310 303 307 294 302 308 303 312 302 298 296 297 303 308 309 307 303 300 300 294 300 308 308 310 313 314 315 314 314
235 238 236 251 267 267 280 288 264 278 289 291 283 290 297 294 302 297 307 308 309 300 300 300 295 294 297 300 302 302 305 303 302 298 296 301 300 306 310 310 313 315 316 317 317
235 241 254 256 271 269 283 290 295 281 297 290 295 302 304 292 290 299 304 304 297 301 305 302 298 300 298 299 299 302 304 303 300 299 300 303 303 305 310 314 316 316 318 317 316
246 248 249 265 267 270 271 284 287 288 292 290 293 294 296 291 293 294 295 293 291 293 295 294 297 300 297 307 309 309 309 308 303 306 304 305 309 317 315 315 317 315 315 317 317